Regional Weather Roundup
Issued by NWS Green Bay, WI

Home | Current Version | Previous Version | Graphics & Text | Print | Product List | Glossary Off
Versions: 1 2 3 4 5 6 7 8 9 10 11 12 13 14 15 16 17 18 19 20 21 22 23 24 25 26 27 28 29 30 31 32 33 34 35 36 37 38 39 40 41 42 43 44 45 46 47 48 49 50

177
ASUS43 KGRB 130900
RWRGRB

NORTH-CENTRAL AND NORTHEAST WISCONSIN REGIONAL WEATHER ROUNDUP
NATIONAL WEATHER SERVICE GREEN BAY WI
300 AM CST SAT FEB 13 2016

WIZ005-009-010>012-018-019-131000-
NORTH CENTRAL WISCONSIN

CITY           SKY/WX    TMP DP  RH WIND       PRES   REMARKS
IRONWOOD       CLOUDY     0  -2  92 NW13      30.43R VSB 1   WCI -18
MANITOWISH WTR NOT AVBL
ARBOR VITAE    NOT AVBL
EAGLE RIVER    NOT AVBL
LAND O LAKES   NOT AVBL
RHINELANDER    CLEAR     -9 -15  75 W10       30.40R WCI -27
PHILLIPS       NOT AVBL
ANTIGO         NOT AVBL
TOMAHAWK       NOT AVBL
MERRILL        NOT AVBL
$$

WIZ013-073-131000-
NORTHEAST WISCONSIN

CITY           SKY/WX    TMP DP  RH WIND       PRES   REMARKS
IRON MOUNTAIN  CLEAR    -11 -17  75 CALM      30.37R
MARINETTE      CLEAR     -2  -9  71 W7        30.44R WCI -16
$$

WIZ017-030-035>037-045-131000-
CENTRAL WISCONSIN

CITY           SKY/WX    TMP DP  RH WIND       PRES   REMARKS
MEDFORD        NOT AVBL
WAUSAU         CLOUDY    -4 -14  62 NW12      30.47R WCI -22
MOSINEE        NOT AVBL
MARSHFIELD     CLOUDY    -7 -19  56 NW14      30.48S WCI -28
WISC RAPIDS    CLOUDY    -4 -18  51 NW9       30.53R WCI -20
STEVENS POINT  NOT AVBL
WAUPACA        NOT AVBL
SHAWANO        NOT AVBL
CLINTONVILLE   NOT AVBL
WAUTOMA        NOT AVBL
$$

WIZ038-039-048-051-131000-
FOX VALLEY

CITY           SKY/WX    TMP DP  RH WIND       PRES   REMARKS
NWS GREEN BAY  PTCLDY    -3 -13  62 W12       30.49R WCI -21
APPLETON       NOT AVBL
OSHKOSH        CLEAR     -2 -15  54 W9        30.50R WCI -18
FOND DU LAC    PTCLDY     0 -14  51 NW14      30.50R WCI -19
$$

WIZ022-050-052-131000-
EAST CENTRAL WISCONSIN

CITY           SKY/WX    TMP DP  RH WIND       PRES   REMARKS
EPHRAIM        NOT AVBL
STURGEON BAY   CLEAR     -2 -11  65 W12G17    30.45R WCI -20
MANITOWOC      NOT AVBL
SHEBOYGAN      CLEAR      0 -13  54 NW15      30.48R WCI -19
$$

LMZ563-521-522-541>543-131000-
LAKESHORE

STATION/POSITION TIME  TEMP    WIND        PRES    VSBY  WAVE
                       AIR SEA DIR/SP/G                  HT/PER
                 (UTC) (F)     (DEG/KT/KT) (MB)    (MI)  (FT/S)
SHEBOYGAN LKSHOR 0800    1     290/ 15/ 19 1033.7R
KEWAUNEE LKSHORE 0800   -1     300/  7/ 12 1029.9R
ALGOMA MARINA    0811          310/  9/ 16   N/A
CHAMBERS ISLAND  0800    0     270/  6/ 13 1030.1R
MENOMINEE LKSHOR 0800   -1     270/  7     1029.5R
$$




USA.gov is the U.S. government's official web portal to all federal, state and local government web resources and services.